Location: Unspecified
(41.5000°N, 0.0000°E)
Time: 23:09:41
(UTC+00:00)

deb Explorer IX - Pass Details

Date: 25 June 2019
Orbit: 539 x 1112 km, 38.8° (Epoch: 19 July)

Event Time Altitude Azimuth Distance (km) Brightness Sun altitude
Rises 10:27:23 0° 195° (SSW) 3,489 ? 63.1°
Reaches altitude 10° 10:30:56 10° 174° (S) 2,667 ? 63.7°
Maximum altitude 10:34:38 16° 139° (SE) 2,371 ? 64.2°
Drops below altitude 10° 10:38:32 10° 104° (ESE) 2,864 ? 64.8°
Sets 10:42:33 0° 85° (E) 3,889 ? 65.4°
